カタログに戻る

STARLINK-32435

運用中通信VLEO
NORAD 61259·PAYLOAD·🇺🇸 United States

打ち上げ Sep 25, 2024 から Vandenberg Space Force Base

Loading…

次のパス (今後24時間)

TLE

最新Source: CelesTrak SupGP

元期: Sep 14, 2026, 21:03 UTC

1 61259C 24175S   26257.87756944  .00037838  00000+0  11182-2 0  2574
2 61259  53.1603  31.7001 0001212  71.2131 146.0518 15.34363370    17

AllMySatでSTARLINK-32435をリアルタイム追跡

Download on the App Store